Regional Weather Roundup
Issued by NWS State College, PA

Home | Current Version | Previous Version | Text Only | Print | Product List | Glossary On
Versions: 1 2 3 4 5 6 7 8 9 10 11 12 13 14 15 16 17 18 19 20 21 22 23 24 25 26 27 28 29 30 31 32 33 34 35 36 37 38 39 40 41 42 43 44 45 46 47 48 49 50
000
ASUS41 KCTP 032110
RWRCTP

REGIONAL WEATHER ROUNDUP
NATIONAL WEATHER SERVICE STATE COLLEGE PA
500 PM EDT SUN MAY 03 2015

Note: "fair" indicates few or no clouds below 12,000 feet with no
significant weather and/or obstructions to visibility.

* = STATION THAT DOES NOT REPORT PRECIPITATION /E.G. RAIN...SNOW...ETC/
    THUNDER OR FOG.

PAZ002>004-007>009-013>016-020>023-029>032-032200-
WESTERN PENNSYLVANIA

CITY           SKY/WX    TMP DP  RH WIND       PRES   REMARKS
ERIE           SUNNY     72  36  26 NW6       30.07F
MEADVILLE      SUNNY     75  36  24 SW7       30.07F
FRANKLIN*      MOSUNNY   75  39  27 W8        30.10S
NEW CASTLE     FAIR      78  43  28 W6        30.09F
BEAVER COUNTY  NOT AVBL
BUTLER*        MOSUNNY   75  41  29 W14       30.11F
PITTSBURGH INT MOSUNNY   75  41  29 W8        30.09F
PITTSBURGH     MOSUNNY   75  35  23 W6        30.09F
INDIANA*       MOSUNNY   73  41  31 VRB7      30.13F
LATROBE        PTSUNNY   73  45  35 SW7       30.12F
WASHINGTON CO* MOSUNNY   73  41  31 SW7       30.12S
$$

PAZ004>006-010>012-017>019-024>028-033>037-041-042-045-046-049>053-032200-
CENTRAL PENNSYLVANIA

CITY           SKY/WX    TMP DP  RH WIND       PRES   REMARKS
BRADFORD       MOSUNNY   70  33  25 NW9       30.10S
DUBOIS         PTSUNNY   75  37  25 SW10      30.09F
CLEARFIELD     PTSUNNY   73  37  27 W6        30.09F
JOHNSTOWN      MOSUNNY   70  39  32 W8        30.12F
ALTOONA        PTSUNNY   75  38  26 W7        30.11S
STATE COLLEGE  PTSUNNY   75  41  29 W9        30.08F
WILLIAMSPORT   MOSUNNY   77  33  20 CALM      30.03F
SELINSGROVE    PTSUNNY   73  49  42 SE6       30.06S
FT INDIANTOWN  NOT AVBL
CAPITAL CITY   MOSUNNY   78  41  26 E5        30.06F
HARRISBURG     PTSUNNY   79  37  22 CALM      30.06S
YORK           MOSUNNY   77  42  28 SW6       30.07F
$$

PAZ038>040-043-044-047-048-054-055-060>062-067>071-032200-
EASTERN PENNSYLVANIA

CITY           SKY/WX    TMP DP  RH WIND       PRES   REMARKS
SCRANTON       MOSUNNY   78  34  20 CALM      30.05F
MOUNT POCONO   CLOUDY    71  30  21 VRB3      30.09S
ALLENTOWN      MOSUNNY   79  36  21 CALM      30.05S
QUAKERTOWN*    PTCLDY    79  39  24 SW7       30.07S
READING        MOSUNNY   80  35  19 VRB6      30.05F
LANCASTER      SUNNY     77  39  25 SW8       30.06F
COATESVILLE    CLEAR     75  37  25 W9        30.09S
POTTSTOWN      MOSUNNY   78  35  21 SW7       30.07F
BLUE BELL      SUNNY     79  37  22 CALM      30.06S
DOYLESTOWN     SUNNY     76  34  21 CALM      30.06S
WILLOW GROVE   NOT AVBL
NORTH PHILA    SUNNY     80  34  19 W7        30.07F
PHILADELPHIA   MOSUNNY   79  35  20 SW5       30.07S
$$


USA.gov is the U.S. government's official web portal to all federal, state and local government web resources and services.